TimeEST,TemperatureF,Dew PointF,Humidity,Sea Level PressureIn,VisibilityMPH,Wind Direction,Wind SpeedMPH,Gust SpeedMPH,PrecipitationIn,Events,Conditions,WindDirDegrees,DateUTC
12:15 AM,24.8,6.8,46,29.96,10.0,NNW,12.7,16.1,N/A,,Clear,340,2014-02-26 05:15:00
12:35 AM,23.0,8.6,54,29.95,10.0,NNW,10.4,-,N/A,,Clear,330,2014-02-26 05:35:00
12:55 AM,23.0,6.8,50,29.94,10.0,NNW,9.2,-,N/A,,Clear,330,2014-02-26 05:55:00
1:15 AM,23.0,6.8,50,29.94,10.0,NNW,10.4,-,N/A,,Clear,330,2014-02-26 06:15:00
1:35 AM,23.0,6.8,50,29.94,10.0,NNW,5.8,-,N/A,,Clear,330,2014-02-26 06:35:00
1:55 AM,23.0,6.8,50,29.94,10.0,NNW,6.9,-,N/A,,Clear,340,2014-02-26 06:55:00
2:15 AM,21.2,6.8,54,29.94,10.0,NNW,8.1,-,N/A,,Clear,340,2014-02-26 07:15:00
2:35 AM,21.2,5.0,50,29.94,10.0,NNW,9.2,-,N/A,,Clear,340,2014-02-26 07:35:00
2:55 AM,21.2,6.8,54,29.94,10.0,NNW,6.9,-,N/A,,Clear,340,2014-02-26 07:55:00
3:15 AM,21.2,5.0,50,29.94,10.0,NNW,8.1,-,N/A,,Clear,330,2014-02-26 08:15:00
3:35 AM,21.2,6.8,54,29.93,10.0,NNW,6.9,-,N/A,,Clear,340,2014-02-26 08:35:00
3:55 AM,21.2,6.8,54,29.93,10.0,NNW,5.8,-,N/A,,Clear,330,2014-02-26 08:55:00
4:15 AM,21.2,6.8,54,29.92,10.0,North,4.6,-,N/A,,Clear,350,2014-02-26 09:15:00
4:35 AM,21.2,6.8,54,29.92,10.0,Calm,Calm,-,N/A,,Clear,0,2014-02-26 09:35:00
4:55 AM,21.2,6.8,54,29.91,10.0,Calm,Calm,-,N/A,,Clear,0,2014-02-26 09:55:00
5:15 AM,21.2,8.6,58,29.90,10.0,SE,3.5,-,N/A,,Clear,130,2014-02-26 10:15:00
5:35 AM,21.2,8.6,58,29.91,10.0,Calm,Calm,-,N/A,,Clear,0,2014-02-26 10:35:00
5:55 AM,21.2,10.4,63,29.90,10.0,SE,4.6,-,N/A,,Clear,130,2014-02-26 10:55:00
6:15 AM,21.2,10.4,63,29.89,10.0,Calm,Calm,-,N/A,,Partly Cloudy,0,2014-02-26 11:15:00
6:35 AM,21.2,8.6,58,29.88,10.0,Calm,Calm,-,N/A,,Mostly Cloudy,0,2014-02-26 11:35:00
6:55 AM,21.2,10.4,63,29.87,10.0,Calm,Calm,-,N/A,,Overcast,0,2014-02-26 11:55:00
7:15 AM,23.0,10.4,59,29.87,10.0,Calm,Calm,-,N/A,,Overcast,0,2014-02-26 12:15:00
7:35 AM,24.8,12.2,59,29.88,10.0,Calm,Calm,-,N/A,,Overcast,0,2014-02-26 12:35:00
7:55 AM,26.6,12.2,55,29.88,10.0,South,8.1,-,N/A,,Overcast,190,2014-02-26 12:55:00
8:15 AM,26.6,10.4,51,29.87,10.0,SW,8.1,-,N/A,,Overcast,220,2014-02-26 13:15:00
8:35 AM,28.4,10.4,47,29.88,10.0,WSW,12.7,18.4,N/A,,Overcast,250,2014-02-26 13:35:00
8:55 AM,28.4,12.2,51,29.88,10.0,WSW,12.7,20.7,N/A,,Overcast,240,2014-02-26 13:55:00
9:15 AM,28.4,12.2,51,29.88,8.0,West,18.4,25.3,N/A,,Overcast,260,2014-02-26 14:15:00
9:35 AM,26.6,14.0,59,29.88,10.0,WSW,16.1,23.0,N/A,,Overcast,250,2014-02-26 14:35:00
9:55 AM,26.6,15.8,64,29.88,10.0,West,15.0,20.7,N/A,,Overcast,260,2014-02-26 14:55:00
10:15 AM,28.4,15.8,59,29.88,10.0,WSW,20.7,26.5,N/A,,Overcast,250,2014-02-26 15:15:00
10:35 AM,28.4,12.2,51,29.88,10.0,West,12.7,24.2,N/A,,Overcast,260,2014-02-26 15:35:00
10:55 AM,28.4,12.2,51,29.88,10.0,West,16.1,21.9,N/A,,Overcast,260,2014-02-26 15:55:00
11:15 AM,28.4,10.4,47,29.88,10.0,West,12.7,20.7,N/A,,Overcast,260,2014-02-26 16:15:00
11:35 AM,28.4,10.4,47,29.87,10.0,West,15.0,24.2,N/A,,Overcast,270,2014-02-26 16:35:00
11:55 AM,30.2,12.2,47,29.86,10.0,West,10.4,20.7,N/A,,Overcast,280,2014-02-26 16:55:00
12:15 PM,30.2,12.2,47,29.85,10.0,West,17.3,24.2,N/A,,Overcast,270,2014-02-26 17:15:00
12:35 PM,30.2,15.8,55,29.83,10.0,West,13.8,24.2,N/A,,Mostly Cloudy,280,2014-02-26 17:35:00
12:55 PM,30.2,17.6,60,29.82,10.0,West,12.7,19.6,N/A,,Mostly Cloudy,280,2014-02-26 17:55:00
1:15 PM,30.2,17.6,60,29.81,10.0,West,15.0,18.4,N/A,,Mostly Cloudy,260,2014-02-26 18:15:00
1:35 PM,30.2,17.6,60,29.80,10.0,West,15.0,20.7,N/A,,Overcast,270,2014-02-26 18:35:00
1:55 PM,30.2,19.4,64,29.80,10.0,WNW,12.7,18.4,N/A,,Overcast,290,2014-02-26 18:55:00
2:15 PM,26.6,19.4,74,29.80,2.0,WNW,15.0,21.9,N/A,,Overcast,290,2014-02-26 19:15:00
2:35 PM,28.4,17.6,64,29.79,10.0,WNW,11.5,20.7,N/A,,Mostly Cloudy,290,2014-02-26 19:35:00
2:55 PM,30.2,17.6,60,29.78,10.0,West,15.0,23.0,N/A,,Partly Cloudy,270,2014-02-26 19:55:00
3:15 PM,30.2,17.6,60,29.78,10.0,West,13.8,19.6,N/A,,Clear,270,2014-02-26 20:15:00
3:35 PM,30.2,15.8,55,29.77,10.0,West,10.4,18.4,N/A,,Clear,270,2014-02-26 20:35:00
3:55 PM,30.2,15.8,55,29.77,10.0,West,10.4,21.9,N/A,,Partly Cloudy,280,2014-02-26 20:55:00
4:15 PM,28.4,15.8,59,29.77,10.0,West,11.5,18.4,N/A,,Mostly Cloudy,280,2014-02-26 21:15:00
4:35 PM,30.2,17.6,60,29.77,10.0,West,9.2,-,N/A,,Mostly Cloudy,280,2014-02-26 21:35:00
4:55 PM,30.2,15.8,55,29.77,10.0,West,8.1,16.1,N/A,,Partly Cloudy,280,2014-02-26 21:55:00
5:15 PM,28.4,14.0,55,29.76,10.0,WNW,10.4,17.3,N/A,,Partly Cloudy,290,2014-02-26 22:15:00
5:35 PM,28.4,10.4,47,29.77,10.0,WNW,8.1,-,N/A,,Scattered Clouds,290,2014-02-26 22:35:00
5:55 PM,28.4,10.4,47,29.77,10.0,WNW,9.2,18.4,N/A,,Mostly Cloudy,290,2014-02-26 22:55:00
6:15 PM,28.4,6.8,40,29.77,10.0,WNW,5.8,16.1,N/A,,Mostly Cloudy,300,2014-02-26 23:15:00
6:35 PM,28.4,6.8,40,29.78,10.0,NW,12.7,17.3,N/A,,Scattered Clouds,320,2014-02-26 23:35:00
6:55 PM,28.4,3.2,34,29.78,10.0,NNW,15.0,18.4,N/A,,Clear,330,2014-02-26 23:55:00
7:15 PM,26.6,1.4,34,29.79,10.0,NNW,11.5,18.4,N/A,,Clear,330,2014-02-27 00:15:00
7:35 PM,26.6,1.4,34,29.79,10.0,NNW,11.5,16.1,N/A,,Clear,340,2014-02-27 00:35:00
7:55 PM,26.6,3.2,37,29.80,10.0,North,11.5,19.6,N/A,,Clear,350,2014-02-27 00:55:00
8:15 PM,24.8,1.4,36,29.81,10.0,NNW,12.7,19.6,N/A,,Clear,340,2014-02-27 01:15:00
8:35 PM,24.8,1.4,36,29.82,10.0,North,12.7,19.6,N/A,,Clear,350,2014-02-27 01:35:00
8:55 PM,24.8,1.4,36,29.83,10.0,North,8.1,16.1,N/A,,Clear,350,2014-02-27 01:55:00
9:15 PM,23.0,-0.4,36,29.84,10.0,North,9.2,-,N/A,,Clear,360,2014-02-27 02:15:00
9:35 PM,23.0,-0.4,36,29.84,10.0,North,9.2,-,N/A,,Clear,10,2014-02-27 02:35:00
9:55 PM,21.2,-2.2,36,29.85,10.0,North,11.5,16.1,N/A,,Clear,350,2014-02-27 02:55:00
10:15 PM,21.2,-2.2,36,29.85,10.0,North,11.5,18.4,N/A,,Clear,350,2014-02-27 03:15:00
10:35 PM,21.2,-2.2,36,29.85,10.0,North,12.7,17.3,N/A,,Clear,350,2014-02-27 03:35:00
10:55 PM,19.4,-2.2,39,29.85,10.0,NNW,15.0,21.9,N/A,,Clear,340,2014-02-27 03:55:00
11:15 PM,19.4,-4.0,36,-9999,10.0,North,-9999.0,-,N/A,,Clear,0,2014-02-27 04:15:00
11:35 PM,19.4,1.4,46,29.85,10.0,North,13.8,19.6,N/A,,Clear,360,2014-02-27 04:35:00
11:55 PM,19.4,-2.2,39,29.85,10.0,North,11.5,17.3,N/A,,Clear,350,2014-02-27 04:55:00